La Flèche Normande - 21/04/2013

La Flechette 85 Km


Pl Do. Nom - Surname Prénom - Name S-Cat /cat Club - Team TEMPS - Time Km/h /sx
1 517 LELEU GEOFFROY MD 1 O GRANDE SYNTHE 02:13:31 38,19 1
2 522 AUCHEDE GARY MD 2 SC BOULONNAIS 02:13:32 38,19 2
3 574 JUSTIN ALEXANDRE MC 1 IFS HEROUVILLE UC 02:13:32 38,19 3
4 598 BOUTIGNY DAVID ME 1 BUCHELAY MILLENIUM CYCLIS 02:14:42 37,86 4
5 554 BOUTEILLER YANNICK MD 3 TCV 02:15:22 37,67 5
6 600 GAUDIN KARIM ME 2 VC LISIEUX 02:16:31 37,36 6
7 545 MARTIN XAVIER MD 4 OMMNIUM CYCLISYE RAPH 02:16:31 37,35 7
8 541 CORMIER THOMAS MD 5 VC ENVERMEUDOISE 02:16:31 37,35 8
9 549 GROUARD DOMINIQUE MG 1 VC BERNAY 02:16:32 37,35 9
10 523 ARSAC ERIC MF 1 ETOILE CYCLITE FONTENAYS 02:16:39 37,32 10
11 612 LAGARDETTE PASCAL MF 2 TCV 02:17:12 37,17 11
12 530 BEROUDIAUX PHILIPPE ME 3 VC LISIEUX 02:17:13 37,16 12
13 535 CHEVALIER THIERRY MD 6 TEAM CHATOU CYCLISME 02:17:14 37,16 13
14 555 GAYRARD FREDERIC MF 3 TCV 02:17:16 37,15 14
15 575 LEVEZIEL JEROME MD 7   02:19:26 36,58 15
16 562 GUILLON LAURENT ME 4 TEAM WSI 02:23:37 35,51 16
17 582 FLEURY GUILLAUME MD 8 VC SAINT ROMANAIS 02:23:38 35,50 17
18 607 DE LA LOSA MATTHIEU MC 2 ES CAEN 02:23:38 35,50 18
19 559 CAUCHY ALEXANDRE MC 3 TEAM WSI 02:23:40 35,50 19
20 504 PAPIN EMMANUEL MD 9 CAEN ASSO. SPORTIVE PERSO 02:23:40 35,50 20
21 538 CIAVATTA RAYNAL ME 5 CABOURG CYCLO CLUB 02:23:41 35,49 21
22 501 VANDEWALLE ALAIN MI 1 CABOURG CYCLO CLUB 02:23:41 35,49 22
23 513 TOURRET MICHEL MH 1 AAJ BLOIS 02:23:42 35,49 23
24 583 FOUREL PATRICE ME 6 CAEN TRIAHLON 02:24:05 35,39 24
25 503 PLOCHOCKI MARC ME 7 CABOURG CYCLO CLUB 02:24:32 35,28 25
26 502 TERRIER OLIVIER MG 2 CABOURG CYCLO CLUB 02:24:32 35,28 26
27 519 GEST LUDWIG MD 10 CC SAILLY FLIBEAUCOURT 02:24:35 35,27 27
28 611 CELLA THIERRY MF 4 VC SULPICIEN 02:24:39 35,26 28
29 570 GUEROULT HERVE MF 5 VELO JEUNE AVENTURE 02:24:40 35,25 29
30 605 GRAPPIN CHRISTIAN MJ 1   02:24:40 35,25 30
31 539 JACQ JEROME ME 8 CAEN ASSO. SPORTIVE PERSO 02:24:40 35,25 31
32 587 GIGON JEROME MD 11 ASS CAEN SPORT PERS MUNIC 02:24:40 35,25 32
33 512 MATHET SERGE MH 2 VC DE ST YRIEIX 02:24:42 35,24 33
34 552 DEBACCO NICOLAS MF 6 CYCLOS DE MESSEI 02:24:46 35,23 34
35 561 HACHE THOMAS MC 4 TEAM WSI 02:24:52 35,20 35
36 597 PONTIN YVES MH 3 CABOURG CYCLO CLUB 02:25:17 35,10 36
37 572 BOUTEILLER SERGE MH 4 VC LISIEUX 02:25:17 35,10 37
38 543 TRIPIED STEPHANE ME 9 NORMANDIE 02:25:18 35,10 38
39 573 LEROUTIER JEAN LUC ME 10   02:25:18 35,10 39
40 515 DUDOUT PASCAL MG 3 VC DEVILLE LES ROUEN 02:25:18 35,10 40
41 560 HACHE OLIVIER MG 4 TEAM WSI 02:25:23 35,08 41
42 606 GUIBON YANNICK MD 12   02:25:24 35,07 42
43 509 BINARD ERIC ME 11   02:27:17 34,62 43
44 542 LEPRINCE PATRICK MG 5   02:30:11 33,96 44
45 571 LETEMPLE FRANCOIS MI 2 VC ST JAMES 02:30:11 33,96 45
46 566 JACQUY MARC ME 12 TEAM GRANFONDO 02:30:13 33,95 46
47 586 AUBREE BENJAMIN MC 5 HAC TRIATLHON 02:30:23 33,91 47
48 589 PAQUET PASCAL ME 13 TEAM GRANFONDO 02:30:30 33,88 48
49 568 LECLERCQ ALINE FA 1 HAC TRIATLHON 02:31:11 33,73 1
50 585 LANGLOIS DOMINIQUE MG 6 VELO CLUB ST ROMANOIS 02:31:16 33,71 49
51 569 PAUTRAT LAURENT ME 14 BUCHELAY MILLENIUM CYCLIS 02:31:26 33,68 50
52 547 LEFEVRE SEBASTIEN MC 6 HAC TRIATLHON 02:31:27 33,67 51
53 557 BERNARD JEAN MARC ME 15 AGSE SECTION CYCLO 02:32:00 33,55 52
54 532 BERNARD DANIEL MJ 2   02:32:00 33,55 53
55 550 BELMONT FRANCK MD 13 VC BERNAY 02:32:01 33,55 54
56 534 MARCHAND DANIEL MI 3 ARGENCES VELO SPORT 02:33:30 33,22 55
57 601 LEGENTIL CEDRIC MD 14   02:36:21 32,62 56
58 584 GARDIN PATRICE ME 16   02:38:06 32,26 57
59 548 VASSOUT PHILIPPE MG 7 VC BERNAY 02:38:07 32,25 58
60 528 LEGRAND CLAUDE MF 7   02:38:34 32,16 59
61 544 MIDOL ERIC MG 8 NORMANDIE 02:38:34 32,16 60
62 602 DUBOT DENIS ME 17 VC BAILLY/NOISY LE ROI 02:39:10 32,04 61
63 594 COISEL PASCAL MD 15 V SPORT ARGENCAIS 02:39:11 32,04 62
64 563 DUFOUR DAVID MC 7   02:39:12 32,03 63
65 558 LEPLEY HERVE ME 18 VC LISIEUX 02:39:12 32,03 64
66 553 GOULETTE THIERRY MF 8   02:39:12 32,03 65
67 565 GONCALVES ALVARO MI 4 F L E P CHARLEVAL 02:39:12 32,03 66
68 525 LEMERCIER JEAN MARC MH 5 VC CAEN 02:39:13 32,03 67
69 556 LE BLED PIERRE ME 19 AGSE SECTION CYCLO 02:39:15 32,02 68
70 609 GARDIN CEDRIC ME 20   02:39:17 32,02 69
71 546 FAUVEL PASCAL MG 9   02:40:31 31,77 70
72 564 BOISROUX PHILIPPE MG 10 AC CHEMIN VERT 02:47:12 30,50 71
73 510 JOURDAIN MARCEL MH 6 CYCLO LOISIRS D EVREUX 02:47:12 30,50 72
74 526 BACHELIER JEAN DENIS MI 5 ENTENTE CYCLO EUDOISE 02:47:13 30,50 73
75 518 GUAY CHRISTIAN MF 9 E CYCLO OISSEL 02:47:13 30,50 74
76 505 GUERARD ERIC MG 11 CYCLO POITEVIN 02:47:41 30,41 75
77 507 KLEIN GILLES MH 7 TEAM ANJOU 02:50:36 29,89 76
78 506 KLEIN ALBAN MD 16 CO ROSIEROIS 02:50:37 29,89 77
79 516 DELAPORTE FRANCIS MJ 3 ASS CYCLO PONT AUDEMER 02:51:47 29,69 78
80 536 GUERIN MARCEL MJ 4   02:52:44 29,52 79
81 567 AUBERT BENOIT MF 10   02:52:45 29,52 80
82 588 MUTEAU JEAN CLAUDE MI 6 RD DU VAL DE VERE 02:52:45 29,52 81
83 520 MORIN PHILIPPE MG 12 CL EVREUX 02:52:46 29,52 82
84 524 CHAUVIN GERARD MI 7 CYCLO LOISIRS D EVREUX 02:52:49 29,51 83
85 521 LAPLACE DOMINIQUE MG 13 VC HAUTOT SUR MER 02:54:28 29,23 84
86 531 VILAIN LYDIA FA 2   02:56:51 28,84 2
87 596 VANHOUTTE PASCAL MG 14 AS MEUDON 02:58:41 28,54 85
88 608 DESSIAUME CHRISTIAN MI 8 CC ISLE ADAM 03:01:05 28,16 86
89 551 REMY PIERRE MX 1 CABOURG CYCLO CLUB 03:01:56 28,03 87
90 581 DEMARE LAURENT MH 8 C SPORTIF BREAUTAIS 03:02:33 27,94 88
91 590 DELORME PATRICK MG 15 ASPTT AMIENS 03:05:06 27,55 89
92 595 CHALAUX PATRICK MH 9   03:05:08 27,55 90
93 592 WALLAERT GUILLAUME MG 16 ASPTT AMIENS 03:05:10 27,54 91
94 591 DUCRET MICHEL MJ 5 ASPTT AMIENS 03:06:19 27,37 92
95 511 CERINI PIERRE MI 9 UNION VELO CLUB DE CHARLE 03:16:12 25,99 93
96 529 CERINI JEROME MD 17 CC OVILLOIS 03:16:17 25,98 94
97 580 LEJEUNE CHRISTIAN MJ 6 R C CAUDERBELAIS 03:19:05 25,62 95
98 514 LUINAUD ANDRE MJ 7 ANC DUN LE PALESTEL 03:19:09 25,61 96
99 527 PAUTRAT JEAN PIERRE MI 10   03:21:10 25,35 97
100 579 DUBOURG XAVIER MY 1 SPORT HANDI NATURE 04:06:13 20,71 98
101 577 LEBLANC DANIEL MY 2 SPORT HANDI NATURE 04:17:34 19,80 99
102 578 PILLOU CLAUDE MY 3 SPORT HANDI NATURE 04:19:27 19,66 100
103 576 BOURGAULT GABRIEL MY 4 SPORT HANDI NATURE 04:19:27 19,66 101
104 603 DUPLESSIS FRANCK MF 11 IFS HEROUVILLE UC 05:00:57 16,95 102
105 604 GUERIN CHRISTOPHE MD 18 IFS HEROUVILLE UC 05:01:31 16,91 103
106 610 BIGNON AURELIEN MD 19 ILE DE FRANCE 00:54:02 3,41 104